FW5669 Weather Reports


Display with metric or nautical units.
time (UTC)temp
F
wind
direction
speed
MPH
gust
MPH
rain 1hr
in
rain 24hr
in
rain mn
in
humidity
%
barometer
mb
20260503221608 58 81 0.0 4.0 0.00 0.00 0.00 73 1014.0
20260503220122 58 36 0.0 3.0 0.00 0.00 0.00 74 1014.1
20260503214600 57 172 1.0 4.0 0.00 0.00 0.00 74 1014.2
20260503213100 57 191 1.0 3.0 0.00 0.00 0.00 74 1013.9
20260503211602 58 165 1.0 3.0 0.00 0.00 0.00 74 1014.0
20260503210059 58 189 2.0 4.0 0.00 0.00 0.00 73 1013.9
20260503210002 58 193 2.0 5.0 0.00 0.00 0.00 73 1013.9
20260503204605 59 206 1.0 3.0 0.00 0.00 0.00 73 1013.9
20260503203101 59 116 0.0 4.0 0.00 0.00 0.00 74 1013.9
20260503201600 59 109 1.0 5.0 0.00 0.00 0.00 76 1013.8
20260503200104 59 104 1.0 4.0 0.00 0.00 0.00 74 1013.7
20260503200005 59 83 1.0 4.0 0.00 0.00 0.00 74 1013.7
20260503194604 58 347 1.0 3.0 0.00 0.00 0.00 74 1014.1
20260503193100 57 187 1.0 4.0 0.00 0.00 0.00 75 1014.0
20260503191602 58 154 1.0 3.0 0.00 0.00 0.00 78 1014.1
20260503190059 58 168 3.0 7.0 0.00 0.00 0.00 76 1014.0
20260503190004 58 208 2.0 5.0 0.00 0.00 0.00 76 1014.0
20260503184607 58 160 1.0 4.0 0.00 0.00 0.00 76 1014.1
20260503184501 58 123 2.0 4.0 0.00 0.00 0.00 75 1014.0
20260503183100 57 127 0.0 3.0 0.00 0.00 0.00 81 1013.9
20260503181603 57 79 2.0 5.0 0.00 0.00 0.00 78 1014.0
20260503180003 56 12 1.0 5.0 0.00 0.00 0.00 84 1014.0
20260503174559 54 35 1.0 7.0 0.00 0.00 0.00 84 1013.9
20260503173112 54 358 1.0 5.0 0.00 0.00 0.00 84 1013.6
20260503171559 55 257 0.0 4.0 0.00 0.00 0.00 80 1013.5
20260503170111 55 71 1.0 7.0 0.00 0.00 0.00 82 1013.7
20260503160117 53 107 1.0 4.0 0.00 0.00 0.00 83 1013.2
20260503150103 53 114 0.0 4.0 0.00 0.00 0.00 83 1012.3
20260503110105 52 293 0.0 0.0 0.00 0.00 0.00 92 1010.6
20260503081558 55 293 0.0 1.0 0.00 0.00 0.00 89 1011.4
20260503071507 56 293 0.0 0.0 0.00 0.00 0.00 88 1011.9
20260503060116 58 293 0.0 0.0 0.00 0.00 0.00 83 1012.2
20260503054502 58 293 0.0 0.0 0.00 0.00 0.00 83 1012.3
20260503053002 59 293 0.0 0.0 0.00 0.00 0.00 82 1012.5
20260503051505 59 293 0.0 0.0 0.00 0.00 0.00 82 1012.5
20260503050003 60 293 0.0 0.0 0.00 0.00 0.00 81 1012.4
20260503044500 60 293 0.0 0.0 0.00 0.00 0.00 80 1012.3
20260503043003 61 295 0.0 1.0 0.00 0.00 0.00 78 1012.1
20260503041601 61 265 0.0 0.0 0.00 0.00 0.00 76 1012.0
20260503040103 62 265 0.0 1.0 0.00 0.00 0.00 75 1011.8
20260503040002 62 265 0.0 1.0 0.00 0.00 0.00 75 1011.8
20260503034501 63 206 0.0 1.0 0.00 0.00 0.00 73 1011.7
20260503033100 63 206 0.0 0.0 0.00 0.00 0.00 72 1011.7
20260503033000 63 206 0.0 0.0 0.00 0.00 0.00 72 1011.6
20260503031602 64 206 0.0 1.0 0.00 0.00 0.00 71 1011.5
20260503030105 65 206 0.0 1.0 0.00 0.00 0.00 70 1011.4
20260503030002 65 206 0.0 1.0 0.00 0.00 0.00 70 1011.4
20260503024503 66 206 0.0 1.0 0.00 0.00 0.00 67 1011.3
20260503023104 67 206 0.0 1.0 0.00 0.00 0.00 67 1011.3
20260503023001 67 206 0.0 1.0 0.00 0.00 0.00 66 1011.3
20260503021604 67 206 0.0 1.0 0.00 0.00 0.00 65 1011.2
20260503020002 68 206 0.0 1.0 0.00 0.00 0.00 63 1011.2
20260503014502 68 206 0.0 1.0 0.00 0.00 0.00 62 1011.2
20260503013101 69 202 0.0 1.0 0.00 0.00 0.00 62 1011.3
20260503011605 69 222 0.0 2.0 0.00 0.00 0.00 61 1011.4
20260503011503 69 248 0.0 2.0 0.00 0.00 0.00 61 1011.4
20260503010105 69 201 0.0 2.0 0.00 0.00 0.00 62 1011.4
20260503004609 70 205 0.0 3.0 0.00 0.00 0.00 59 1011.5
20260503003112 70 166 0.0 2.0 0.00 0.00 0.00 59 1011.4
20260503001626 70 156 0.0 2.0 0.00 0.00 0.00 60 1011.5
20260503000100 71 227 1.0 2.0 0.00 0.00 0.00 58 1011.4
20260503000002 71 236 1.0 2.0 0.00 0.00 0.00 58 1011.4
20260502234501 71 283 0.0 2.0 0.00 0.00 0.00 57 1011.4
20260502233003 71 181 1.0 3.0 0.00 0.00 0.00 56 1011.6
20260502231600 72 293 0.0 3.0 0.00 0.00 0.00 53 1011.6
20260502230003 72 162 0.0 4.0 0.00 0.00 0.00 54 1011.8
20260502224603 73 151 1.0 4.0 0.00 0.00 0.00 52 1012.0
20260502223101 72 150 1.0 2.0 0.00 0.00 0.00 52 1012.3